TIBA-1

Last updated on Sun Jun 21 2026 00:03:08 GMT+0000 (Coordinated Universal Time)

1 44800U 19080A 26171.18519036 .00000151 00000+0 00000+0 0 9999 2 44800 0.0566 20.3730 0001983 79.4675 270.7037 1.00272600 24087
UTC large
Height (km)
Speed (km/s)
/
Latitude / Longitude
Inclination (degrees)
Orbital Period (minutes)
Azimuth
Elevation
Range (km)
Doppler Factor

Next 0 passes for location: London (51.5072 / 0.1276)

No passes found over London.
TIBA-1